LGR888 MMGL-PHNL

Flight info

Callsign LGR888
Flight time 7h 43m
Altitude 40000
Route NUBIG1 NUBIG UT147 NOTUP UJ14N PVR DCT 22N110W 22N120W 23N130W 22N140W 21N150W DCT FITES DCT LNY JULLE5
Aircraft A339/H-SADE1E2E3GHIJ3J5M1P2RWXY/LB2D1

Departure

Time 2026-05-05 08:22
Airport Guadalajara International Airport (MMGL)

Arrival

Time 2026-05-05 16:05
Airport Daniel K. Inouye International Airport (PHNL)
Time Latitude Longitude Altitude Speed Heading
2026-05-05 07:57 20.52491 -103.30304 5032 ft 0 kts 18°
2026-05-05 08:06 20.52479 -103.30308 5032 ft 3 kts 33°
2026-05-05 08:07 20.52467 -103.30322 5032 ft 2 kts 64°
2026-05-05 08:07 20.52462 -103.30340 5033 ft 2 kts 89°
2026-05-05 08:07 20.52464 -103.30353 5033 ft 0 kts 109°
2026-05-05 08:07 20.52465 -103.30357 5033 ft 0 kts 111°
2026-05-05 08:11 20.52463 -103.30352 5033 ft 1 kts 113°
2026-05-05 08:12 20.52455 -103.30335 5032 ft 3 kts 120°
2026-05-05 08:12 20.52440 -103.30308 5033 ft 4 kts 120°
2026-05-05 08:12 20.52426 -103.30276 5033 ft 5 kts 111°
2026-05-05 08:12 20.52408 -103.30244 5033 ft 4 kts 136°
2026-05-05 08:13 20.52387 -103.30235 5034 ft 3 kts 165°
2026-05-05 08:13 20.52364 -103.30233 5034 ft 3 kts 182°
2026-05-05 08:13 20.52340 -103.30237 5034 ft 4 kts 191°
2026-05-05 08:13 20.52304 -103.30246 5035 ft 6 kts 187°
2026-05-05 08:14 20.52263 -103.30228 5035 ft 7 kts 132°
2026-05-05 08:14 20.52232 -103.30182 5034 ft 9 kts 118°
2026-05-05 08:14 20.52202 -103.30115 5034 ft 11 kts 114°
2026-05-05 08:14 20.52168 -103.30034 5034 ft 13 kts 114°
2026-05-05 08:15 20.52129 -103.29944 5034 ft 14 kts 114°
2026-05-05 08:15 20.52091 -103.29854 5034 ft 14 kts 114°
2026-05-05 08:15 20.52054 -103.29765 5034 ft 13 kts 114°
2026-05-05 08:15 20.52017 -103.29678 5034 ft 13 kts 114°
2026-05-05 08:16 20.51981 -103.29593 5034 ft 12 kts 116°
2026-05-05 08:16 20.51934 -103.29515 5034 ft 12 kts 126°
2026-05-05 08:16 20.51882 -103.29441 5034 ft 12 kts 127°
2026-05-05 08:16 20.51832 -103.29371 5034 ft 12 kts 127°
2026-05-05 08:17 20.51782 -103.29300 5034 ft 12 kts 127°
2026-05-05 08:17 20.51733 -103.29230 5034 ft 10 kts 127°
2026-05-05 08:17 20.51692 -103.29185 5034 ft 8 kts 150°
2026-05-05 08:17 20.51638 -103.29176 5035 ft 7 kts 189°
2026-05-05 08:18 20.51594 -103.29191 5035 ft 6 kts 204°
2026-05-05 08:18 20.51556 -103.29209 5036 ft 5 kts 204°
2026-05-05 08:18 20.51527 -103.29223 5037 ft 0 kts 204°
2026-05-05 08:19 20.51515 -103.29228 5037 ft 3 kts 203°
2026-05-05 08:19 20.51475 -103.29247 5037 ft 8 kts 203°
2026-05-05 08:20 20.51437 -103.29290 5037 ft 7 kts 258°
2026-05-05 08:20 20.51442 -103.29346 5038 ft 8 kts 285°
2026-05-05 08:20 20.51467 -103.29413 5038 ft 10 kts 294°
2026-05-05 08:20 20.51528 -103.29557 5037 ft 45 kts 294°
2026-05-05 08:21 20.51705 -103.29980 5039 ft 91 kts 294°
2026-05-05 08:21 20.52000 -103.30672 5041 ft 131 kts 294°
2026-05-05 08:21 20.52394 -103.31621 5041 ft 168 kts 294°
2026-05-05 08:21 20.52894 -103.32805 5223 ft 183 kts 294°
2026-05-05 08:22 20.53411 -103.34015 5702 ft 179 kts 293°
2026-05-05 08:22 20.53920 -103.35206 6172 ft 173 kts 293°
2026-05-05 08:22 20.54398 -103.36373 6410 ft 175 kts 288°
2026-05-05 08:22 20.54830 -103.37595 6633 ft 178 kts 289°
2026-05-05 08:23 20.55270 -103.38874 6799 ft 186 kts 289°
2026-05-05 08:23 20.55722 -103.40190 6972 ft 195 kts 289°
2026-05-05 08:23 20.56200 -103.41573 7161 ft 205 kts 289°
2026-05-05 08:23 20.56715 -103.43050 7359 ft 216 kts 289°
2026-05-05 08:24 20.57248 -103.44577 7561 ft 227 kts 289°
2026-05-05 08:24 20.57813 -103.46191 7769 ft 238 kts 289°
2026-05-05 08:24 20.58409 -103.47892 7984 ft 250 kts 289°
2026-05-05 08:24 20.59032 -103.49670 8204 ft 262 kts 289°
2026-05-05 08:25 20.59680 -103.51522 8422 ft 275 kts 289°
2026-05-05 08:25 20.60362 -103.53467 8728 ft 283 kts 289°
2026-05-05 08:25 20.61056 -103.55450 9222 ft 284 kts 289°
2026-05-05 08:25 20.61746 -103.57420 9723 ft 285 kts 289°
2026-05-05 08:26 20.62438 -103.59403 10196 ft 287 kts 289°
2026-05-05 08:26 20.63136 -103.61410 10448 ft 297 kts 289°
2026-05-05 08:26 20.63862 -103.63499 10656 ft 309 kts 289°
2026-05-05 08:26 20.64625 -103.65694 10861 ft 321 kts 288°
2026-05-05 08:27 20.65423 -103.67986 11068 ft 333 kts 288°
2026-05-05 08:27 20.66240 -103.70332 11265 ft 345 kts 288°
2026-05-05 08:27 20.67083 -103.72756 11458 ft 356 kts 288°
2026-05-05 08:27 20.67960 -103.75276 11649 ft 368 kts 288°
2026-05-05 08:28 20.68862 -103.77873 11831 ft 379 kts 288°
2026-05-05 08:28 20.69794 -103.80556 12128 ft 386 kts 289°
2026-05-05 08:28 20.70736 -103.83246 12560 ft 389 kts 289°
2026-05-05 08:28 20.71685 -103.85937 12980 ft 392 kts 289°
2026-05-05 08:29 20.72654 -103.88686 13380 ft 396 kts 288°
2026-05-05 08:29 20.73616 -103.91423 13784 ft 399 kts 289°
2026-05-05 08:29 20.74591 -103.94201 14203 ft 402 kts 289°
2026-05-05 08:30 20.76557 -103.99815 15007 ft 409 kts 289°
2026-05-05 08:30 20.77555 -104.02670 15400 ft 413 kts 289°
2026-05-05 08:30 20.78564 -104.05560 15792 ft 416 kts 289°
2026-05-05 08:30 20.79579 -104.08467 16198 ft 419 kts 289°
2026-05-05 08:31 20.80596 -104.11378 16602 ft 422 kts 289°
2026-05-05 08:31 20.81632 -104.14349 17003 ft 426 kts 289°
2026-05-05 08:31 20.82663 -104.17309 17398 ft 429 kts 289°
2026-05-05 08:31 20.83708 -104.20308 17807 ft 431 kts 289°
2026-05-05 08:32 20.84603 -104.23367 18208 ft 432 kts 280°
2026-05-05 08:32 20.84951 -104.26512 18597 ft 432 kts 269°
2026-05-05 08:32 20.84747 -104.29706 19012 ft 431 kts 259°
2026-05-05 08:32 20.84243 -104.32858 19422 ft 433 kts 258°
2026-05-05 08:33 20.83699 -104.36033 19805 ft 435 kts 258°
2026-05-05 08:33 20.83157 -104.39198 20184 ft 438 kts 258°
2026-05-05 08:33 20.82621 -104.42384 20562 ft 440 kts 258°
2026-05-05 08:33 20.82086 -104.45616 20936 ft 441 kts 258°
2026-05-05 08:34 20.81561 -104.48814 21303 ft 443 kts 258°
2026-05-05 08:34 20.81027 -104.52085 21662 ft 445 kts 258°
2026-05-05 08:34 20.80500 -104.55321 22006 ft 447 kts 258°
2026-05-05 08:34 20.79966 -104.58605 22357 ft 448 kts 258°
2026-05-05 08:35 20.79434 -104.61869 22708 ft 450 kts 258°
2026-05-05 08:35 20.78892 -104.65185 23049 ft 452 kts 258°
2026-05-05 08:35 20.78354 -104.68480 23380 ft 454 kts 258°
2026-05-05 08:35 20.77810 -104.71806 23701 ft 456 kts 258°
2026-05-05 08:36 20.77268 -104.75121 24015 ft 458 kts 258°
2026-05-05 08:36 20.76726 -104.78432 24321 ft 460 kts 258°
2026-05-05 08:36 20.76168 -104.81834 24631 ft 462 kts 258°
2026-05-05 08:36 20.75614 -104.85213 24948 ft 464 kts 258°
2026-05-05 08:37 20.75065 -104.88554 25546 ft 458 kts 258°
2026-05-05 08:37 20.74518 -104.91879 26271 ft 450 kts 258°
2026-05-05 08:37 20.73980 -104.95146 26663 ft 450 kts 258°
2026-05-05 08:37 20.73435 -104.98441 26905 ft 453 kts 259°
2026-05-05 08:38 20.72890 -105.01743 27156 ft 456 kts 259°
2026-05-05 08:38 20.72333 -105.05105 27423 ft 458 kts 259°
2026-05-05 08:38 20.71785 -105.08421 27682 ft 460 kts 259°
2026-05-05 08:38 20.71232 -105.11748 27943 ft 462 kts 259°
2026-05-05 08:39 20.70679 -105.15083 28212 ft 463 kts 259°
2026-05-05 08:39 20.70130 -105.18435 28488 ft 464 kts 261°
2026-05-05 08:39 20.69860 -105.21854 28726 ft 467 kts 268°
2026-05-05 08:39 20.70011 -105.25281 28981 ft 469 kts 276°
2026-05-05 08:40 20.70576 -105.28690 29223 ft 472 kts 283°
2026-05-05 08:40 20.71484 -105.32051 29465 ft 474 kts 286°
2026-05-05 08:40 20.72474 -105.35412 29716 ft 476 kts 287°
2026-05-05 08:40 20.73480 -105.38784 29968 ft 477 kts 287°
2026-05-05 08:41 20.74470 -105.42120 30222 ft 478 kts 287°
2026-05-05 08:41 20.75468 -105.45507 30478 ft 480 kts 286°
2026-05-05 08:41 20.76466 -105.48920 30724 ft 481 kts 286°
2026-05-05 08:41 20.77449 -105.52297 30955 ft 482 kts 286°
2026-05-05 08:42 20.78438 -105.55707 31182 ft 484 kts 286°
2026-05-05 08:42 20.79422 -105.59103 31415 ft 485 kts 286°
2026-05-05 08:42 20.80409 -105.62521 31639 ft 486 kts 286°
2026-05-05 08:42 20.81405 -105.65972 31868 ft 487 kts 285°
2026-05-05 08:43 20.82399 -105.69415 32079 ft 488 kts 285°
2026-05-05 08:43 20.83392 -105.72866 32287 ft 489 kts 285°
2026-05-05 08:43 20.84386 -105.76319 32479 ft 490 kts 285°
2026-05-05 08:43 20.85376 -105.79761 32660 ft 492 kts 285°
2026-05-05 08:44 20.86379 -105.83254 32827 ft 493 kts 285°
2026-05-05 08:44 20.87374 -105.86723 32998 ft 494 kts 285°
2026-05-05 08:44 20.88368 -105.90189 33176 ft 495 kts 285°
2026-05-05 08:44 20.89372 -105.93694 33428 ft 495 kts 285°
2026-05-05 08:45 20.90386 -105.97235 33780 ft 492 kts 285°
2026-05-05 08:45 20.91375 -106.00690 34155 ft 489 kts 285°
2026-05-05 08:45 20.92362 -106.04145 34521 ft 486 kts 285°
2026-05-05 08:45 20.93345 -106.07587 34845 ft 483 kts 285°
2026-05-05 08:46 20.94330 -106.11043 35123 ft 482 kts 285°
2026-05-05 08:46 20.95307 -106.14473 35352 ft 481 kts 285°
2026-05-05 08:46 20.96270 -106.17853 35586 ft 480 kts 285°
2026-05-05 08:46 20.97237 -106.21250 35824 ft 479 kts 285°
2026-05-05 08:47 20.98210 -106.24675 36033 ft 478 kts 285°
2026-05-05 08:47 20.99167 -106.28042 36220 ft 477 kts 285°
2026-05-05 08:47 21.00121 -106.31400 36407 ft 476 kts 285°
2026-05-05 08:47 21.01070 -106.34750 36568 ft 476 kts 285°
2026-05-05 08:48 21.02037 -106.38158 36733 ft 476 kts 285°
2026-05-05 08:48 21.02979 -106.41484 36907 ft 475 kts 285°
2026-05-05 08:48 21.03936 -106.44865 37076 ft 474 kts 285°
2026-05-05 08:48 21.04877 -106.48195 37247 ft 473 kts 285°
2026-05-05 08:49 21.05820 -106.51533 37427 ft 472 kts 285°
2026-05-05 08:49 21.06772 -106.54904 37575 ft 472 kts 285°
2026-05-05 08:49 21.07716 -106.58253 37710 ft 471 kts 285°
2026-05-05 08:49 21.08641 -106.61533 37835 ft 471 kts 285°
2026-05-05 08:50 21.09590 -106.64901 37941 ft 471 kts 285°
2026-05-05 08:50 21.11476 -106.71607 37911 ft 462 kts 285°
2026-05-05 08:51 21.13284 -106.78043 37915 ft 451 kts 284°
2026-05-05 08:51 21.15080 -106.84465 37912 ft 452 kts 284°
2026-05-05 08:52 21.16867 -106.90856 37912 ft 452 kts 284°
2026-05-05 08:52 21.18658 -106.97263 37912 ft 451 kts 284°
2026-05-05 08:53 21.20454 -107.03706 37912 ft 451 kts 284°
2026-05-05 08:53 21.22252 -107.10162 37913 ft 451 kts 284°
2026-05-05 08:54 21.24044 -107.16602 37915 ft 451 kts 284°
2026-05-05 08:54 21.25826 -107.23019 37916 ft 452 kts 284°
2026-05-05 08:55 21.27616 -107.29478 37918 ft 453 kts 284°
2026-05-05 08:55 21.29406 -107.35942 37919 ft 453 kts 284°
2026-05-05 08:56 21.31186 -107.42383 37918 ft 452 kts 284°
2026-05-05 08:56 21.32964 -107.48829 37918 ft 452 kts 284°
2026-05-05 08:57 21.34744 -107.55290 37921 ft 452 kts 284°
2026-05-05 08:57 21.36522 -107.61756 37920 ft 451 kts 284°
2026-05-05 08:58 21.38297 -107.68220 37921 ft 451 kts 284°
2026-05-05 08:58 21.40074 -107.74695 37923 ft 451 kts 284°
2026-05-05 08:59 21.41837 -107.81135 37919 ft 451 kts 284°
2026-05-05 08:59 21.43614 -107.87637 37916 ft 452 kts 284°
2026-05-05 09:00 21.45390 -107.94142 37916 ft 452 kts 284°
2026-05-05 09:00 21.47152 -108.00616 37914 ft 452 kts 283°
2026-05-05 09:01 21.48901 -108.07044 37913 ft 452 kts 283°
2026-05-05 09:01 21.50656 -108.13506 37915 ft 451 kts 283°
2026-05-05 09:02 21.52402 -108.19956 37915 ft 451 kts 283°
2026-05-05 09:02 21.54165 -108.26474 37913 ft 451 kts 283°
2026-05-05 09:03 21.55914 -108.32948 37915 ft 450 kts 283°
2026-05-05 09:03 21.57656 -108.39410 37922 ft 449 kts 283°
2026-05-05 09:04 21.59385 -108.45828 37920 ft 449 kts 283°
2026-05-05 09:04 21.61127 -108.52318 37922 ft 448 kts 283°
2026-05-05 09:05 21.62849 -108.58734 37923 ft 448 kts 283°
2026-05-05 09:05 21.64566 -108.65139 37921 ft 447 kts 283°
2026-05-05 09:06 21.66269 -108.71513 37914 ft 447 kts 283°
2026-05-05 09:06 21.67991 -108.77964 37910 ft 448 kts 283°
2026-05-05 09:07 21.69700 -108.84370 37910 ft 447 kts 283°
2026-05-05 09:07 21.71396 -108.90743 37917 ft 446 kts 283°
2026-05-05 09:08 21.73092 -108.97134 37918 ft 445 kts 283°
2026-05-05 09:08 21.74787 -109.03526 37918 ft 445 kts 283°
2026-05-05 09:09 21.76485 -109.09943 37921 ft 444 kts 283°
2026-05-05 09:09 21.78178 -109.16349 37914 ft 445 kts 283°
2026-05-05 09:10 21.79878 -109.22797 37914 ft 449 kts 283°
2026-05-05 09:10 21.81585 -109.29273 37916 ft 449 kts 283°
2026-05-05 09:11 21.83281 -109.35721 37922 ft 449 kts 283°
2026-05-05 09:11 21.84978 -109.42191 37920 ft 448 kts 283°
2026-05-05 09:12 21.86668 -109.48644 37922 ft 447 kts 283°
2026-05-05 09:12 21.88363 -109.55131 37923 ft 447 kts 283°
2026-05-05 09:13 21.90050 -109.61590 37926 ft 447 kts 283°
2026-05-05 09:13 21.91731 -109.68048 37928 ft 446 kts 283°
2026-05-05 09:14 21.93405 -109.74483 37924 ft 445 kts 283°
2026-05-05 09:14 21.95078 -109.80933 37928 ft 444 kts 283°
2026-05-05 09:15 21.96749 -109.87389 37928 ft 443 kts 283°
2026-05-05 09:15 21.98386 -109.93787 37928 ft 443 kts 282°
2026-05-05 09:16 21.99613 -110.00325 37927 ft 441 kts 276°
2026-05-05 09:16 22.00215 -110.06842 37931 ft 440 kts 271°
2026-05-05 09:17 22.00421 -110.13450 37929 ft 439 kts 270°
2026-05-05 09:17 22.00608 -110.19966 37922 ft 439 kts 270°
2026-05-05 09:18 22.00796 -110.26489 37920 ft 438 kts 270°
2026-05-05 09:18 22.00982 -110.33004 37927 ft 437 kts 270°
2026-05-05 09:19 22.01134 -110.38409 37930 ft 436 kts 270°
2026-05-05 09:19 22.01284 -110.43801 37928 ft 437 kts 270°
2026-05-05 09:20 22.01522 -110.52441 37931 ft 435 kts 270°
2026-05-05 09:20 22.01696 -110.58984 37935 ft 435 kts 270°
2026-05-05 09:21 22.01870 -110.65520 37939 ft 435 kts 270°
2026-05-05 09:21 22.02040 -110.72000 37939 ft 435 kts 270°
2026-05-05 09:22 22.02124 -110.75241 37943 ft 434 kts 270°
2026-05-05 09:22 22.02319 -110.82785 37948 ft 435 kts 269°
2026-05-05 09:23 22.02534 -110.91401 37953 ft 434 kts 270°
2026-05-05 09:23 22.02694 -110.97912 37954 ft 435 kts 269°
2026-05-05 09:24 22.02850 -111.04402 37952 ft 434 kts 269°
2026-05-05 09:24 22.02926 -111.07613 37954 ft 434 kts 269°
2026-05-05 09:25 22.03304 -111.23828 37957 ft 433 kts 269°
2026-05-05 09:26 22.03453 -111.30316 37957 ft 433 kts 269°
2026-05-05 09:26 22.03598 -111.36768 37959 ft 433 kts 269°
2026-05-05 09:27 22.03738 -111.43247 37961 ft 433 kts 269°
2026-05-05 09:27 22.03875 -111.49672 37962 ft 432 kts 269°
2026-05-05 09:28 22.04011 -111.56130 37964 ft 434 kts 269°
2026-05-05 09:28 22.04146 -111.62620 37963 ft 433 kts 269°
2026-05-05 09:29 22.04278 -111.69057 37968 ft 433 kts 269°
2026-05-05 09:29 22.04405 -111.75537 37968 ft 434 kts 269°
2026-05-05 09:30 22.04532 -111.82003 37969 ft 433 kts 269°
2026-05-05 09:30 22.04655 -111.88417 37970 ft 432 kts 269°
2026-05-05 09:31 22.04777 -111.94908 37973 ft 434 kts 268°
2026-05-05 09:31 22.04894 -112.01381 37973 ft 433 kts 268°
2026-05-05 09:32 22.05010 -112.07806 37973 ft 435 kts 268°
2026-05-05 09:32 22.05121 -112.14253 37974 ft 435 kts 269°
2026-05-05 09:33 22.05235 -112.20743 37974 ft 435 kts 269°
2026-05-05 09:33 22.05345 -112.27252 37974 ft 433 kts 269°
2026-05-05 09:34 22.05449 -112.33695 37975 ft 433 kts 269°
2026-05-05 09:34 22.05551 -112.40102 37974 ft 433 kts 268°
2026-05-05 09:35 22.05652 -112.46531 37976 ft 433 kts 269°
2026-05-05 09:35 22.05798 -112.56190 37986 ft 433 kts 269°
2026-05-05 09:36 22.05892 -112.62607 37986 ft 432 kts 269°
2026-05-05 09:36 22.05981 -112.69073 37988 ft 431 kts 268°
2026-05-05 09:37 22.06073 -112.75481 37987 ft 432 kts 268°
2026-05-05 09:37 22.06158 -112.81928 37990 ft 431 kts 268°
2026-05-05 09:38 22.06243 -112.88383 37989 ft 431 kts 268°
2026-05-05 09:38 22.06324 -112.94765 37991 ft 431 kts 268°
2026-05-05 09:39 22.06405 -113.01210 37993 ft 431 kts 268°
2026-05-05 09:39 22.06483 -113.07599 37993 ft 431 kts 268°
2026-05-05 09:40 22.06557 -113.14063 37992 ft 432 kts 268°
2026-05-05 09:40 22.06628 -113.20483 37995 ft 432 kts 268°
2026-05-05 09:41 22.06697 -113.26917 37994 ft 432 kts 268°
2026-05-05 09:41 22.06763 -113.33378 37994 ft 431 kts 268°
2026-05-05 09:42 22.06827 -113.39761 37992 ft 430 kts 268°
2026-05-05 09:42 22.06888 -113.46156 37992 ft 430 kts 268°
2026-05-05 09:43 22.06947 -113.52550 37994 ft 430 kts 268°
2026-05-05 09:43 22.07004 -113.58955 37994 ft 430 kts 268°
2026-05-05 09:44 22.07057 -113.65301 37995 ft 429 kts 267°
2026-05-05 09:44 22.07106 -113.71687 37996 ft 429 kts 268°
2026-05-05 09:45 22.07155 -113.78065 37992 ft 427 kts 267°
2026-05-05 09:45 22.07200 -113.84449 37995 ft 428 kts 267°
2026-05-05 09:46 22.07243 -113.90860 37994 ft 428 kts 267°
2026-05-05 09:46 22.07287 -113.97245 37995 ft 428 kts 267°
2026-05-05 09:47 22.07325 -114.03675 38000 ft 427 kts 267°
2026-05-05 09:47 22.07360 -114.10075 37996 ft 428 kts 267°
2026-05-05 09:48 22.07395 -114.16520 38000 ft 429 kts 267°
2026-05-05 09:48 22.07424 -114.22915 37999 ft 428 kts 267°
2026-05-05 09:49 22.07453 -114.29368 38001 ft 428 kts 267°
2026-05-05 09:49 22.07478 -114.35754 38002 ft 428 kts 267°
2026-05-05 09:50 22.07503 -114.42196 38003 ft 428 kts 267°
2026-05-05 09:50 22.07524 -114.48634 38006 ft 428 kts 267°
2026-05-05 09:51 22.07546 -114.55076 38008 ft 428 kts 267°
2026-05-05 09:51 22.07559 -114.61485 38008 ft 428 kts 267°
2026-05-05 09:52 22.07573 -114.67910 38011 ft 428 kts 266°
2026-05-05 09:52 22.07585 -114.74352 38009 ft 428 kts 267°
2026-05-05 09:53 22.07595 -114.80680 38009 ft 428 kts 266°
2026-05-05 09:53 22.07601 -114.87027 38014 ft 428 kts 267°
2026-05-05 09:54 22.07605 -114.93377 38015 ft 428 kts 267°
2026-05-05 09:54 22.07606 -114.99740 38015 ft 428 kts 267°
2026-05-05 09:55 22.07605 -115.06083 38017 ft 428 kts 267°
2026-05-05 09:55 22.07600 -115.12395 38012 ft 428 kts 267°
2026-05-05 09:56 22.07596 -115.18735 38011 ft 427 kts 266°
2026-05-05 09:56 22.07586 -115.25080 38013 ft 427 kts 267°
2026-05-05 09:57 22.07577 -115.31387 38016 ft 428 kts 266°
2026-05-05 09:57 22.07564 -115.37706 38014 ft 427 kts 267°
2026-05-05 09:58 22.07546 -115.44031 38014 ft 426 kts 267°
2026-05-05 09:58 22.07528 -115.50318 38011 ft 427 kts 267°
2026-05-05 09:59 22.07509 -115.56589 38015 ft 427 kts 267°
2026-05-05 09:59 22.07485 -115.62890 38013 ft 427 kts 267°
2026-05-05 10:00 22.07461 -115.69163 38019 ft 426 kts 266°
2026-05-05 10:00 22.07433 -115.75472 38012 ft 426 kts 266°
2026-05-05 10:01 22.07404 -115.81725 38010 ft 426 kts 266°
2026-05-05 10:01 22.07371 -115.88028 38021 ft 427 kts 266°
2026-05-05 10:02 22.07335 -115.94311 38013 ft 426 kts 266°
2026-05-05 10:02 22.07298 -116.00549 38016 ft 426 kts 266°
2026-05-05 10:03 22.07259 -116.06825 38019 ft 426 kts 267°
2026-05-05 10:03 22.07216 -116.13077 38017 ft 425 kts 266°
2026-05-05 10:04 22.07174 -116.19340 38021 ft 425 kts 266°
2026-05-05 10:04 22.07127 -116.25568 38019 ft 426 kts 267°
2026-05-05 10:05 22.07077 -116.31843 38018 ft 424 kts 266°
2026-05-05 10:05 22.07025 -116.38075 38015 ft 424 kts 267°
2026-05-05 10:06 22.06974 -116.44322 38018 ft 424 kts 266°
2026-05-05 10:06 22.06918 -116.50510 38017 ft 423 kts 266°
2026-05-05 10:07 22.06860 -116.56715 38016 ft 423 kts 266°
2026-05-05 10:07 22.06800 -116.62859 38020 ft 423 kts 266°
2026-05-05 10:08 22.06739 -116.69054 38022 ft 422 kts 266°
2026-05-05 10:08 22.06671 -116.75171 38020 ft 421 kts 266°
2026-05-05 10:09 22.06605 -116.81346 38013 ft 421 kts 266°
2026-05-05 10:09 22.06537 -116.87499 38015 ft 423 kts 266°
2026-05-05 10:10 22.06466 -116.93604 38020 ft 423 kts 266°
2026-05-05 10:10 22.06393 -116.99757 38015 ft 423 kts 266°
2026-05-05 10:11 22.06320 -117.05886 38017 ft 423 kts 266°
2026-05-05 10:11 22.06241 -117.12005 38015 ft 422 kts 266°
2026-05-05 10:12 22.06161 -117.18115 38015 ft 420 kts 266°
2026-05-05 10:12 22.06080 -117.24185 38016 ft 421 kts 266°
2026-05-05 10:13 22.05995 -117.30280 38017 ft 420 kts 266°
2026-05-05 10:13 22.05909 -117.36312 38016 ft 419 kts 266°
2026-05-05 10:14 22.05823 -117.42320 38015 ft 419 kts 266°
2026-05-05 10:14 22.05733 -117.48342 38016 ft 419 kts 266°
2026-05-05 10:15 22.05641 -117.54310 38017 ft 419 kts 266°
2026-05-05 10:15 22.05549 -117.60287 38017 ft 419 kts 266°
2026-05-05 10:16 22.05451 -117.66292 38017 ft 417 kts 266°
2026-05-05 10:16 22.05352 -117.72302 38019 ft 418 kts 266°
2026-05-05 10:17 22.05253 -117.78320 38017 ft 416 kts 265°
2026-05-05 10:17 22.05152 -117.84270 38016 ft 416 kts 265°
2026-05-05 10:18 22.05045 -117.90264 38017 ft 416 kts 266°
2026-05-05 10:18 22.04941 -117.96172 38017 ft 418 kts 266°
2026-05-05 10:19 22.04833 -118.02113 38017 ft 418 kts 266°
2026-05-05 10:19 22.04724 -118.08037 38021 ft 417 kts 266°
2026-05-05 10:20 22.04610 -118.14008 38024 ft 417 kts 265°
2026-05-05 10:20 22.04500 -118.19871 38024 ft 417 kts 265°
2026-05-05 10:21 22.04382 -118.25766 38028 ft 417 kts 265°
2026-05-05 10:21 22.04263 -118.31660 38035 ft 416 kts 266°
2026-05-05 10:22 22.04145 -118.37502 38037 ft 415 kts 266°
2026-05-05 10:22 22.04023 -118.43376 38047 ft 414 kts 265°
2026-05-05 10:23 22.03901 -118.49210 38043 ft 414 kts 266°
2026-05-05 10:23 22.03777 -118.55061 38047 ft 414 kts 265°
2026-05-05 10:24 22.03650 -118.60903 38050 ft 414 kts 265°
2026-05-05 10:24 22.03520 -118.66718 38051 ft 413 kts 265°
2026-05-05 10:25 22.03389 -118.72510 38052 ft 413 kts 265°
2026-05-05 10:25 22.03258 -118.78284 38050 ft 411 kts 265°
2026-05-05 10:26 22.03124 -118.84060 38052 ft 412 kts 265°
2026-05-05 10:26 22.02988 -118.89843 38051 ft 412 kts 264°
2026-05-05 10:27 22.02848 -118.95642 38053 ft 413 kts 265°
2026-05-05 10:27 22.02707 -119.01453 38057 ft 413 kts 265°
2026-05-05 10:28 22.02566 -119.07265 38056 ft 413 kts 264°
2026-05-05 10:28 22.02421 -119.13075 38057 ft 412 kts 265°
2026-05-05 10:29 22.02275 -119.18936 38055 ft 412 kts 264°
2026-05-05 10:29 22.02122 -119.24838 38052 ft 412 kts 265°
2026-05-05 10:30 22.01966 -119.30772 38057 ft 412 kts 265°
2026-05-05 10:30 22.01812 -119.36728 38056 ft 412 kts 265°
2026-05-05 10:31 22.01650 -119.42670 38055 ft 411 kts 265°
2026-05-05 10:31 22.01488 -119.48600 38056 ft 410 kts 265°
2026-05-05 10:32 22.01328 -119.54536 38054 ft 410 kts 265°
2026-05-05 10:32 22.01168 -119.60252 38055 ft 410 kts 265°
2026-05-05 10:33 22.01007 -119.65984 38058 ft 410 kts 264°
2026-05-05 10:33 22.00843 -119.71766 38060 ft 410 kts 264°
2026-05-05 10:34 22.00676 -119.77516 38057 ft 408 kts 264°
2026-05-05 10:34 22.00507 -119.83227 38052 ft 409 kts 265°
2026-05-05 10:35 22.00336 -119.88998 38051 ft 409 kts 264°
2026-05-05 10:35 22.00166 -119.94752 38053 ft 409 kts 265°
2026-05-05 10:36 22.00280 -120.00566 38054 ft 412 kts 269°
2026-05-05 10:36 22.00850 -120.06324 38059 ft 413 kts 273°
2026-05-05 10:37 22.01647 -120.12425 38060 ft 413 kts 273°
2026-05-05 10:37 22.02443 -120.18546 38068 ft 413 kts 273°
2026-05-05 10:38 22.03237 -120.24628 38060 ft 413 kts 273°
2026-05-05 10:38 22.04035 -120.30787 38070 ft 412 kts 273°
2026-05-05 10:39 22.04822 -120.36861 38067 ft 411 kts 273°
2026-05-05 10:39 22.05615 -120.42989 38066 ft 410 kts 273°
2026-05-05 10:40 22.06399 -120.49081 38059 ft 410 kts 273°
2026-05-05 10:40 22.07179 -120.55164 38062 ft 410 kts 273°
2026-05-05 10:41 22.07956 -120.61235 38062 ft 409 kts 273°
2026-05-05 10:41 22.08733 -120.67333 38064 ft 409 kts 272°
2026-05-05 10:42 22.09893 -120.76479 38062 ft 409 kts 272°
2026-05-05 10:43 22.10656 -120.82498 38058 ft 409 kts 272°
2026-05-05 10:43 22.11424 -120.88586 38062 ft 407 kts 273°
2026-05-05 10:44 22.12189 -120.94668 38057 ft 407 kts 273°
2026-05-05 10:44 22.12951 -121.00724 38060 ft 408 kts 273°
2026-05-05 10:45 22.13710 -121.06780 38061 ft 408 kts 272°
2026-05-05 10:45 22.14463 -121.12837 38061 ft 406 kts 272°
2026-05-05 10:46 22.15217 -121.18898 38068 ft 407 kts 272°
2026-05-05 10:46 22.15962 -121.24920 38064 ft 407 kts 272°
2026-05-05 10:47 22.16708 -121.30959 38063 ft 406 kts 273°
2026-05-05 10:47 22.17453 -121.37003 38063 ft 406 kts 272°
2026-05-05 10:48 22.18196 -121.43062 38071 ft 405 kts 273°
2026-05-05 10:48 22.18936 -121.49096 38066 ft 404 kts 272°
2026-05-05 10:49 22.19669 -121.55112 38071 ft 404 kts 272°
2026-05-05 10:49 22.20401 -121.61134 38079 ft 404 kts 273°
2026-05-05 10:50 22.21133 -121.67157 38075 ft 403 kts 272°
2026-05-05 10:50 22.21859 -121.73176 38076 ft 402 kts 272°
2026-05-05 10:51 22.22579 -121.79140 38072 ft 402 kts 272°
2026-05-05 10:51 22.23303 -121.85178 38074 ft 403 kts 272°
2026-05-05 10:52 22.24020 -121.91168 38082 ft 402 kts 273°
2026-05-05 10:52 22.24736 -121.97148 38081 ft 402 kts 272°
2026-05-05 10:53 22.25449 -122.03140 38072 ft 401 kts 272°
2026-05-05 10:53 22.26154 -122.09106 38080 ft 401 kts 272°
2026-05-05 10:54 22.26861 -122.15076 38075 ft 400 kts 272°
2026-05-05 10:54 22.27564 -122.21038 38075 ft 400 kts 272°
2026-05-05 10:55 22.28262 -122.26984 38080 ft 401 kts 272°
2026-05-05 10:55 22.28959 -122.32943 38081 ft 400 kts 272°
2026-05-05 10:56 22.29656 -122.38911 38079 ft 401 kts 272°
2026-05-05 10:56 22.30351 -122.44882 38079 ft 400 kts 272°
2026-05-05 10:57 22.31047 -122.50867 38080 ft 400 kts 272°
2026-05-05 10:57 22.31731 -122.56798 38079 ft 400 kts 272°
2026-05-05 10:58 22.32418 -122.62774 38077 ft 399 kts 272°
2026-05-05 10:58 22.33101 -122.68699 38081 ft 399 kts 272°
2026-05-05 10:59 22.33782 -122.74653 38078 ft 399 kts 272°
2026-05-05 10:59 22.34464 -122.80621 38079 ft 400 kts 272°
2026-05-05 11:00 22.35143 -122.86608 38078 ft 399 kts 272°
2026-05-05 11:00 22.35815 -122.92539 38077 ft 398 kts 272°
2026-05-05 11:01 22.36488 -122.98478 38077 ft 400 kts 272°
2026-05-05 11:01 22.37160 -123.04466 38076 ft 400 kts 272°
2026-05-05 11:02 22.37826 -123.10388 38076 ft 400 kts 272°
2026-05-05 11:02 22.38494 -123.16391 38076 ft 399 kts 272°
2026-05-05 11:03 22.39153 -123.22292 38078 ft 400 kts 272°
2026-05-05 11:03 22.39820 -123.28307 38075 ft 401 kts 272°
2026-05-05 11:04 22.40485 -123.34287 38075 ft 401 kts 272°
2026-05-05 11:04 22.41146 -123.40299 38076 ft 401 kts 272°
2026-05-05 11:05 22.41798 -123.46257 38077 ft 399 kts 272°
2026-05-05 11:05 22.42454 -123.52248 38075 ft 401 kts 272°
2026-05-05 11:06 22.43112 -123.58254 38076 ft 400 kts 272°
2026-05-05 11:06 22.43762 -123.64204 38075 ft 400 kts 272°
2026-05-05 11:07 22.44411 -123.70203 38078 ft 401 kts 271°
2026-05-05 11:07 22.45060 -123.76217 38076 ft 400 kts 271°
2026-05-05 11:08 22.45703 -123.82223 38077 ft 401 kts 272°
2026-05-05 11:08 22.46348 -123.88225 38074 ft 401 kts 272°
2026-05-05 11:09 22.46988 -123.94203 38076 ft 401 kts 272°
2026-05-05 11:09 22.47625 -124.00215 38075 ft 402 kts 272°
2026-05-05 11:10 22.48263 -124.06184 38077 ft 402 kts 272°
2026-05-05 11:10 22.48895 -124.12164 38136 ft 404 kts 272°
2026-05-05 11:10 22.49204 -124.15092 38327 ft 403 kts 272°
2026-05-05 11:11 22.49508 -124.17999 38561 ft 402 kts 272°
2026-05-05 11:11 22.49814 -124.20921 38790 ft 400 kts 272°
2026-05-05 11:11 22.50116 -124.23793 38993 ft 399 kts 272°
2026-05-05 11:11 22.50415 -124.26643 39174 ft 399 kts 272°
2026-05-05 11:12 22.50724 -124.29564 39323 ft 399 kts 272°
2026-05-05 11:12 22.51022 -124.32415 39426 ft 399 kts 272°
2026-05-05 11:12 22.51318 -124.35288 39504 ft 400 kts 272°
2026-05-05 11:12 22.51619 -124.38187 39650 ft 399 kts 272°
2026-05-05 11:13 22.51918 -124.41042 39821 ft 399 kts 272°
2026-05-05 11:13 22.52217 -124.43918 40020 ft 397 kts 272°
2026-05-05 11:13 22.52513 -124.46791 40078 ft 396 kts 272°
2026-05-05 11:14 22.53109 -124.52549 40080 ft 396 kts 272°
2026-05-05 11:14 22.53703 -124.58289 40081 ft 398 kts 271°
2026-05-05 11:15 22.54289 -124.64057 40082 ft 398 kts 272°
2026-05-05 11:15 22.54869 -124.69770 40084 ft 397 kts 271°
2026-05-05 11:16 22.55460 -124.75550 40083 ft 398 kts 271°
2026-05-05 11:16 22.56038 -124.81264 40084 ft 397 kts 271°
2026-05-05 11:17 22.56622 -124.87048 40084 ft 397 kts 272°
2026-05-05 11:17 22.57200 -124.92776 40086 ft 398 kts 272°
2026-05-05 11:18 22.57775 -124.98515 40086 ft 398 kts 271°
2026-05-05 11:18 22.58350 -125.04258 40086 ft 399 kts 271°
2026-05-05 11:19 22.58921 -125.10018 40088 ft 400 kts 272°
2026-05-05 11:19 22.59497 -125.15810 40085 ft 399 kts 272°
2026-05-05 11:20 22.60066 -125.21587 40089 ft 398 kts 271°
2026-05-05 11:20 22.60632 -125.27330 40089 ft 399 kts 271°
2026-05-05 11:21 22.61200 -125.33130 40087 ft 399 kts 272°
2026-05-05 11:21 22.61765 -125.38893 40090 ft 399 kts 272°
2026-05-05 11:22 22.62325 -125.44691 40090 ft 399 kts 272°
2026-05-05 11:22 22.62887 -125.50481 40087 ft 398 kts 271°
2026-05-05 11:23 22.63447 -125.56258 40089 ft 401 kts 272°
2026-05-05 11:23 22.64009 -125.62103 40093 ft 399 kts 272°
2026-05-05 11:24 22.64560 -125.67873 40094 ft 399 kts 271°
2026-05-05 11:24 22.65112 -125.73650 40093 ft 398 kts 271°
2026-05-05 11:25 22.65665 -125.79424 40089 ft 399 kts 272°
2026-05-05 11:25 22.66214 -125.85224 40087 ft 399 kts 272°
2026-05-05 11:26 22.66765 -125.91032 40085 ft 398 kts 272°
2026-05-05 11:26 22.67311 -125.96809 40088 ft 398 kts 272°
2026-05-05 11:27 22.67855 -126.02606 40088 ft 399 kts 272°
2026-05-05 11:27 22.68396 -126.08411 40089 ft 399 kts 272°
2026-05-05 11:28 22.68937 -126.14226 40090 ft 400 kts 272°
2026-05-05 11:28 22.69474 -126.20020 40088 ft 400 kts 272°
2026-05-05 11:29 22.70008 -126.25812 40086 ft 400 kts 272°
2026-05-05 11:29 22.70542 -126.31639 40082 ft 400 kts 272°
2026-05-05 11:30 22.71077 -126.37486 40075 ft 400 kts 272°
2026-05-05 11:30 22.71608 -126.43313 40074 ft 400 kts 272°
2026-05-05 11:31 22.72135 -126.49139 40077 ft 399 kts 272°
2026-05-05 11:31 22.72663 -126.54979 40076 ft 400 kts 272°
2026-05-05 11:32 22.73193 -126.60857 40074 ft 401 kts 272°
2026-05-05 11:32 22.73715 -126.66708 40078 ft 401 kts 272°
2026-05-05 11:33 22.74240 -126.72571 40075 ft 401 kts 272°
2026-05-05 11:33 22.74758 -126.78406 40074 ft 401 kts 272°
2026-05-05 11:34 22.75277 -126.84267 40075 ft 401 kts 272°
2026-05-05 11:34 22.75791 -126.90104 40076 ft 401 kts 272°
2026-05-05 11:35 22.76306 -126.95952 40073 ft 401 kts 272°
2026-05-05 11:35 22.76824 -127.01867 40077 ft 402 kts 272°
2026-05-05 11:36 22.77336 -127.07761 40079 ft 402 kts 272°
2026-05-05 11:36 22.77842 -127.13618 40078 ft 401 kts 272°
2026-05-05 11:37 22.78351 -127.19524 40082 ft 401 kts 272°
2026-05-05 11:37 22.78854 -127.25378 40079 ft 401 kts 272°
2026-05-05 11:38 22.79361 -127.31294 40086 ft 402 kts 272°
2026-05-05 11:38 22.79860 -127.37161 40089 ft 401 kts 272°
2026-05-05 11:39 22.80360 -127.43053 40092 ft 402 kts 272°
2026-05-05 11:39 22.80862 -127.48984 40095 ft 401 kts 272°
2026-05-05 11:40 22.81357 -127.54881 40096 ft 401 kts 272°
2026-05-05 11:40 22.81850 -127.60770 40096 ft 401 kts 273°
2026-05-05 11:41 22.82338 -127.66653 40097 ft 401 kts 272°
2026-05-05 11:41 22.82830 -127.72565 40098 ft 402 kts 272°
2026-05-05 11:42 22.83316 -127.78461 40095 ft 402 kts 272°
2026-05-05 11:42 22.83804 -127.84377 40094 ft 402 kts 272°
2026-05-05 11:43 22.84289 -127.90316 40096 ft 401 kts 272°
2026-05-05 11:43 22.84768 -127.96207 40089 ft 403 kts 272°
2026-05-05 11:44 22.85251 -128.02174 40099 ft 403 kts 272°
2026-05-05 11:44 22.85726 -128.08073 40102 ft 402 kts 273°
2026-05-05 11:45 22.86204 -128.14004 40087 ft 402 kts 272°
2026-05-05 11:45 22.86676 -128.19911 40091 ft 402 kts 273°
2026-05-05 11:46 22.87148 -128.25854 40094 ft 402 kts 273°
2026-05-05 11:46 22.87618 -128.31764 40098 ft 402 kts 272°
2026-05-05 11:47 22.88084 -128.37679 40104 ft 400 kts 272°
2026-05-05 11:47 22.88549 -128.43622 40094 ft 400 kts 272°
2026-05-05 11:48 22.89238 -128.52492 40098 ft 401 kts 273°
2026-05-05 11:48 22.89704 -128.58484 40095 ft 401 kts 273°
2026-05-05 11:49 22.90160 -128.64410 40092 ft 401 kts 273°
2026-05-05 11:49 22.90618 -128.70352 40093 ft 400 kts 272°
2026-05-05 11:50 22.91067 -128.76260 40107 ft 400 kts 273°
2026-05-05 11:50 22.91517 -128.82164 40096 ft 401 kts 273°
2026-05-05 11:51 22.91965 -128.88097 40087 ft 401 kts 272°
2026-05-05 11:51 22.92414 -128.94055 40106 ft 401 kts 272°
2026-05-05 11:52 22.92859 -129.00026 40097 ft 401 kts 272°
2026-05-05 11:52 22.93305 -129.05997 40093 ft 401 kts 272°
2026-05-05 11:53 22.93745 -129.11945 40098 ft 401 kts 272°
2026-05-05 11:53 22.94187 -129.17934 40096 ft 402 kts 272°
2026-05-05 11:54 22.94627 -129.23927 40094 ft 401 kts 272°
2026-05-05 11:54 22.95059 -129.29864 40100 ft 402 kts 272°
2026-05-05 11:55 22.95493 -129.35849 40090 ft 402 kts 273°
2026-05-05 11:55 22.95922 -129.41774 40098 ft 403 kts 273°
2026-05-05 11:56 22.96352 -129.47789 40098 ft 402 kts 272°
2026-05-05 11:56 22.96777 -129.53743 40094 ft 402 kts 273°
2026-05-05 11:57 22.97201 -129.59721 40093 ft 402 kts 273°
2026-05-05 11:57 22.97622 -129.65672 40097 ft 403 kts 272°
2026-05-05 11:58 22.98040 -129.71625 40098 ft 403 kts 272°
2026-05-05 11:58 22.98456 -129.77580 40092 ft 403 kts 272°
2026-05-05 11:59 22.98868 -129.83507 40094 ft 403 kts 272°
2026-05-05 11:59 22.99279 -129.89493 40100 ft 403 kts 272°
2026-05-05 12:00 22.99686 -129.95433 40098 ft 403 kts 272°
2026-05-05 12:00 22.99809 -130.01360 40097 ft 403 kts 268°
2026-05-05 12:01 22.99485 -130.07303 40097 ft 402 kts 265°
2026-05-05 12:01 22.99075 -130.13347 40107 ft 403 kts 265°
2026-05-05 12:02 22.98656 -130.19440 40113 ft 403 kts 265°
2026-05-05 12:02 22.98241 -130.25409 40118 ft 402 kts 265°
2026-05-05 12:03 22.97827 -130.31320 40116 ft 401 kts 265°
2026-05-05 12:03 22.97412 -130.37207 40116 ft 401 kts 265°
2026-05-05 12:04 22.96992 -130.43149 40115 ft 401 kts 265°
2026-05-05 12:04 22.96570 -130.49049 40114 ft 400 kts 265°
2026-05-05 12:05 22.96145 -130.54997 40116 ft 401 kts 265°
2026-05-05 12:05 22.95719 -130.60912 40117 ft 401 kts 266°
2026-05-05 12:06 22.95289 -130.66834 40120 ft 401 kts 265°
2026-05-05 12:06 22.94856 -130.72792 40116 ft 401 kts 265°
2026-05-05 12:07 22.94422 -130.78725 40114 ft 402 kts 265°
2026-05-05 12:07 22.93986 -130.84672 40115 ft 402 kts 265°
2026-05-05 12:08 22.93544 -130.90640 40115 ft 402 kts 265°
2026-05-05 12:08 22.93104 -130.96576 40114 ft 402 kts 266°
2026-05-05 12:09 22.92658 -131.02553 40114 ft 402 kts 265°
2026-05-05 12:09 22.92213 -131.08498 40115 ft 402 kts 265°
2026-05-05 12:10 22.91765 -131.14435 40116 ft 402 kts 266°
2026-05-05 12:10 22.91317 -131.20343 40115 ft 402 kts 266°
2026-05-05 12:11 22.90861 -131.26309 40116 ft 402 kts 266°
2026-05-05 12:11 22.90412 -131.32193 40114 ft 401 kts 266°
2026-05-05 12:12 22.89956 -131.38147 40115 ft 402 kts 266°
2026-05-05 12:12 22.89496 -131.44076 40115 ft 401 kts 265°
2026-05-05 12:13 22.89039 -131.49971 40114 ft 401 kts 266°
2026-05-05 12:13 22.88579 -131.55872 40114 ft 401 kts 266°
2026-05-05 12:14 22.88113 -131.61783 40114 ft 402 kts 266°
2026-05-05 12:14 22.87645 -131.67731 40119 ft 402 kts 265°
2026-05-05 12:15 22.87173 -131.73720 40115 ft 403 kts 265°
2026-05-05 12:15 22.86700 -131.79658 40114 ft 402 kts 265°
2026-05-05 12:16 22.86222 -131.85631 40114 ft 403 kts 265°
2026-05-05 12:16 22.85744 -131.91591 40115 ft 403 kts 265°
2026-05-05 12:17 22.85267 -131.97520 40113 ft 403 kts 265°
2026-05-05 12:17 22.84784 -132.03462 40114 ft 402 kts 265°
2026-05-05 12:18 22.84297 -132.09424 40114 ft 403 kts 265°
2026-05-05 12:18 22.83815 -132.15352 40113 ft 403 kts 265°
2026-05-05 12:19 22.83331 -132.21252 40113 ft 403 kts 265°
2026-05-05 12:19 22.82840 -132.27188 40112 ft 403 kts 265°
2026-05-05 12:20 22.82346 -132.33141 40113 ft 403 kts 266°
2026-05-05 12:20 22.81850 -132.39084 40113 ft 403 kts 265°
2026-05-05 12:21 22.81354 -132.45012 40115 ft 402 kts 266°
2026-05-05 12:21 22.80855 -132.50946 40113 ft 403 kts 265°
2026-05-05 12:22 22.80355 -132.56877 40112 ft 404 kts 266°
2026-05-05 12:22 22.79851 -132.62823 40111 ft 403 kts 265°
2026-05-05 12:23 22.79347 -132.68741 40115 ft 403 kts 265°
2026-05-05 12:23 22.78835 -132.74724 40112 ft 403 kts 265°
2026-05-05 12:24 22.78326 -132.80653 40112 ft 403 kts 265°
2026-05-05 12:24 22.77816 -132.86549 40112 ft 403 kts 265°
2026-05-05 12:25 22.77299 -132.92505 40110 ft 404 kts 265°
2026-05-05 12:25 22.76783 -132.98453 40114 ft 404 kts 265°
2026-05-05 12:26 22.76262 -133.04405 40111 ft 405 kts 265°
2026-05-05 12:26 22.75738 -133.10375 40112 ft 404 kts 265°
2026-05-05 12:27 22.75217 -133.16295 40110 ft 405 kts 265°
2026-05-05 12:27 22.74685 -133.22275 40111 ft 406 kts 265°
2026-05-05 12:28 22.74156 -133.28215 40110 ft 406 kts 265°
2026-05-05 12:28 22.73624 -133.34193 40113 ft 405 kts 265°
2026-05-05 12:29 22.73091 -133.40118 40112 ft 405 kts 265°
2026-05-05 12:29 22.72553 -133.46104 40111 ft 405 kts 265°
2026-05-05 12:30 22.72012 -133.52083 40111 ft 405 kts 265°
2026-05-05 12:30 22.71470 -133.58044 40111 ft 405 kts 265°
2026-05-05 12:31 22.70929 -133.63983 40111 ft 405 kts 265°
2026-05-05 12:31 22.70385 -133.69917 40113 ft 406 kts 265°
2026-05-05 12:32 22.69841 -133.75836 40111 ft 406 kts 265°
2026-05-05 12:32 22.69289 -133.81804 40110 ft 406 kts 265°
2026-05-05 12:33 22.68735 -133.87787 40110 ft 406 kts 265°
2026-05-05 12:33 22.68180 -133.93753 40111 ft 406 kts 265°
2026-05-05 12:34 22.67626 -133.99686 40110 ft 406 kts 265°
2026-05-05 12:34 22.67064 -134.05659 40111 ft 406 kts 265°
2026-05-05 12:35 22.66498 -134.11652 40110 ft 407 kts 265°
2026-05-05 12:35 22.65933 -134.17618 40109 ft 408 kts 265°
2026-05-05 12:36 22.65364 -134.23637 40109 ft 408 kts 265°
2026-05-05 12:36 22.64792 -134.29623 40110 ft 408 kts 265°
2026-05-05 12:37 22.64216 -134.35646 40109 ft 408 kts 265°
2026-05-05 12:37 22.63638 -134.41660 40109 ft 408 kts 265°
2026-05-05 12:38 22.63056 -134.47687 40109 ft 408 kts 265°
2026-05-05 12:38 22.62473 -134.53699 40110 ft 408 kts 265°
2026-05-05 12:39 22.61887 -134.59724 40113 ft 408 kts 265°
2026-05-05 12:39 22.61298 -134.65758 40119 ft 408 kts 265°
2026-05-05 12:40 22.60700 -134.71855 40117 ft 408 kts 265°
2026-05-05 12:40 22.60097 -134.77982 40117 ft 409 kts 265°
2026-05-05 12:41 22.59506 -134.83958 40112 ft 409 kts 265°
2026-05-05 12:41 22.58909 -134.89975 40108 ft 409 kts 265°
2026-05-05 12:42 22.58311 -134.95989 40110 ft 409 kts 265°
2026-05-05 12:42 22.57703 -135.02065 40110 ft 409 kts 265°
2026-05-05 12:43 22.57102 -135.08052 40108 ft 409 kts 265°
2026-05-05 12:43 22.56495 -135.14084 40109 ft 408 kts 265°
2026-05-05 12:44 22.55884 -135.20113 40111 ft 408 kts 265°
2026-05-05 12:44 22.55278 -135.26102 40107 ft 409 kts 265°
2026-05-05 12:45 22.54663 -135.32136 40106 ft 409 kts 265°
2026-05-05 12:45 22.54047 -135.38159 40106 ft 409 kts 265°
2026-05-05 12:46 22.53422 -135.44246 40107 ft 409 kts 265°
2026-05-05 12:46 22.52800 -135.50293 40108 ft 409 kts 265°
2026-05-05 12:47 22.52175 -135.56339 40109 ft 409 kts 265°
2026-05-05 12:47 22.51545 -135.62395 40106 ft 409 kts 265°
2026-05-05 12:48 22.50918 -135.68411 40111 ft 409 kts 265°
2026-05-05 12:48 22.50290 -135.74429 40107 ft 409 kts 265°
2026-05-05 12:49 22.49656 -135.80472 40105 ft 409 kts 265°
2026-05-05 12:49 22.49023 -135.86470 40107 ft 409 kts 264°
2026-05-05 12:50 22.48383 -135.92526 40112 ft 408 kts 265°
2026-05-05 12:50 22.47747 -135.98534 40115 ft 408 kts 264°
2026-05-05 12:51 22.47106 -136.04542 40116 ft 408 kts 265°
2026-05-05 12:51 22.46462 -136.10584 40116 ft 409 kts 265°
2026-05-05 12:52 22.45820 -136.16571 40115 ft 409 kts 265°
2026-05-05 12:52 22.45168 -136.22627 40115 ft 409 kts 265°
2026-05-05 12:53 22.44518 -136.28647 40115 ft 410 kts 265°
2026-05-05 12:53 22.43864 -136.34689 40117 ft 410 kts 265°
2026-05-05 12:54 22.42882 -136.43715 40117 ft 410 kts 264°
2026-05-05 12:55 22.42222 -136.49753 40116 ft 409 kts 265°
2026-05-05 12:55 22.41557 -136.55804 40117 ft 410 kts 265°
2026-05-05 12:56 22.40891 -136.61865 40116 ft 410 kts 265°
2026-05-05 12:56 22.40216 -136.67964 40119 ft 410 kts 264°
2026-05-05 12:57 22.39552 -136.73962 40117 ft 410 kts 264°
2026-05-05 12:57 22.38881 -136.80000 40117 ft 410 kts 264°
2026-05-05 12:58 22.38207 -136.86029 40117 ft 410 kts 264°
2026-05-05 12:58 22.37527 -136.92101 40117 ft 410 kts 264°
2026-05-05 12:59 22.36847 -136.98154 40116 ft 410 kts 264°
2026-05-05 12:59 22.36163 -137.04210 40114 ft 410 kts 264°
2026-05-05 13:00 22.35140 -137.13263 40114 ft 411 kts 264°
2026-05-05 13:01 22.33758 -137.25383 40115 ft 410 kts 264°
2026-05-05 13:01 22.33063 -137.31445 40116 ft 410 kts 264°
2026-05-05 13:02 22.32371 -137.37486 40114 ft 410 kts 264°
2026-05-05 13:02 22.31670 -137.43559 40114 ft 410 kts 264°
2026-05-05 13:03 22.30970 -137.49620 40113 ft 411 kts 264°
2026-05-05 13:03 22.30268 -137.55681 40108 ft 411 kts 264°
2026-05-05 13:04 22.29561 -137.61739 40102 ft 411 kts 264°
2026-05-05 13:04 22.28851 -137.67824 40108 ft 411 kts 264°
2026-05-05 13:05 22.28146 -137.73842 40103 ft 411 kts 264°
2026-05-05 13:05 22.27436 -137.79883 40105 ft 411 kts 264°
2026-05-05 13:06 22.26720 -137.85950 40100 ft 412 kts 264°
2026-05-05 13:06 22.26001 -137.92033 40102 ft 412 kts 264°
2026-05-05 13:07 22.25284 -137.98082 40103 ft 413 kts 264°
2026-05-05 13:07 22.24560 -138.04163 40100 ft 412 kts 264°
2026-05-05 13:08 22.23831 -138.10255 40100 ft 413 kts 264°
2026-05-05 13:08 22.23102 -138.16325 40102 ft 413 kts 264°
2026-05-05 13:09 22.22370 -138.22403 40099 ft 413 kts 264°
2026-05-05 13:09 22.21638 -138.28473 40099 ft 413 kts 264°
2026-05-05 13:10 22.20901 -138.34575 40100 ft 412 kts 264°
2026-05-05 13:10 22.20166 -138.40625 40097 ft 412 kts 264°
2026-05-05 13:11 22.19431 -138.46654 40100 ft 412 kts 264°
2026-05-05 13:11 22.18687 -138.52739 40099 ft 412 kts 264°
2026-05-05 13:12 22.17943 -138.58815 40097 ft 412 kts 264°
2026-05-05 13:12 22.17201 -138.64848 40102 ft 412 kts 264°
2026-05-05 13:13 22.16459 -138.70872 40099 ft 412 kts 264°
2026-05-05 13:13 22.15714 -138.76897 40096 ft 412 kts 264°
2026-05-05 13:14 22.14961 -138.82968 40101 ft 412 kts 264°
2026-05-05 13:14 22.14208 -138.89015 40097 ft 413 kts 264°
2026-05-05 13:15 22.13454 -138.95055 40098 ft 413 kts 264°
2026-05-05 13:15 22.12691 -139.01150 40099 ft 413 kts 264°
2026-05-05 13:16 22.11928 -139.07231 40101 ft 413 kts 264°
2026-05-05 13:16 22.11165 -139.13306 40100 ft 413 kts 264°
2026-05-05 13:17 22.10399 -139.19379 40098 ft 413 kts 264°
2026-05-05 13:17 22.09632 -139.25433 40104 ft 413 kts 264°
2026-05-05 13:18 22.08854 -139.31537 40101 ft 413 kts 264°
2026-05-05 13:18 22.08086 -139.37567 40098 ft 414 kts 264°
2026-05-05 13:19 22.07305 -139.43677 40101 ft 414 kts 264°
2026-05-05 13:19 22.06525 -139.49756 40101 ft 413 kts 264°
2026-05-05 13:20 22.05743 -139.55841 40098 ft 413 kts 264°
2026-05-05 13:20 22.04964 -139.61876 40102 ft 412 kts 264°
2026-05-05 13:21 22.04183 -139.67911 40103 ft 411 kts 263°
2026-05-05 13:21 22.03405 -139.73906 40103 ft 411 kts 263°
2026-05-05 13:22 22.02622 -139.79919 40098 ft 411 kts 263°
2026-05-05 13:22 22.01832 -139.85973 40099 ft 411 kts 263°
2026-05-05 13:23 22.01042 -139.92000 40099 ft 411 kts 263°
2026-05-05 13:23 22.00254 -139.98003 40097 ft 411 kts 264°
2026-05-05 13:24 21.99714 -140.04074 40098 ft 411 kts 266°
2026-05-05 13:24 21.99289 -140.10147 40095 ft 410 kts 266°
2026-05-05 13:25 21.98862 -140.16209 40097 ft 410 kts 266°
2026-05-05 13:25 21.98434 -140.22269 40096 ft 411 kts 266°
2026-05-05 13:26 21.98002 -140.28337 40098 ft 412 kts 266°
2026-05-05 13:26 21.97570 -140.34393 40097 ft 412 kts 266°
2026-05-05 13:27 21.97135 -140.40463 40098 ft 412 kts 266°
2026-05-05 13:27 21.96695 -140.46562 40098 ft 412 kts 266°
2026-05-05 13:28 21.96254 -140.52663 40094 ft 412 kts 266°
2026-05-05 13:28 21.95811 -140.58748 40097 ft 412 kts 266°
2026-05-05 13:29 21.95368 -140.64786 40094 ft 411 kts 266°
2026-05-05 13:29 21.94918 -140.70866 40096 ft 411 kts 266°
2026-05-05 13:30 21.94469 -140.76932 40095 ft 411 kts 266°
2026-05-05 13:30 21.94022 -140.82974 40095 ft 410 kts 266°
2026-05-05 13:31 21.93570 -140.89011 40093 ft 411 kts 266°
2026-05-05 13:31 21.93115 -140.95076 40095 ft 411 kts 266°
2026-05-05 13:32 21.92657 -141.01146 40097 ft 411 kts 266°
2026-05-05 13:32 21.92201 -141.07198 40094 ft 411 kts 266°
2026-05-05 13:33 21.91738 -141.13249 40094 ft 411 kts 266°
2026-05-05 13:33 21.91272 -141.19322 40096 ft 411 kts 266°
2026-05-05 13:34 21.90806 -141.25382 40094 ft 412 kts 266°
2026-05-05 13:34 21.90337 -141.31450 40095 ft 411 kts 266°
2026-05-05 13:35 21.89866 -141.37520 40094 ft 411 kts 266°
2026-05-05 13:35 21.89397 -141.43550 40093 ft 411 kts 266°
2026-05-05 13:36 21.88922 -141.49603 40093 ft 411 kts 266°
2026-05-05 13:36 21.88442 -141.55676 40099 ft 411 kts 266°
2026-05-05 13:37 21.87963 -141.61729 40092 ft 411 kts 266°
2026-05-05 13:37 21.87482 -141.67778 40102 ft 411 kts 265°
2026-05-05 13:38 21.86998 -141.73817 40092 ft 411 kts 266°
2026-05-05 13:38 21.86515 -141.79845 40099 ft 411 kts 266°
2026-05-05 13:39 21.86025 -141.85912 40097 ft 412 kts 266°
2026-05-05 13:39 21.85536 -141.91959 40092 ft 412 kts 266°
2026-05-05 13:40 21.85043 -141.98024 40093 ft 412 kts 266°
2026-05-05 13:40 21.84549 -142.04068 40093 ft 411 kts 266°
2026-05-05 13:41 21.84051 -142.10141 40095 ft 412 kts 266°
2026-05-05 13:41 21.83550 -142.16200 40100 ft 411 kts 266°
2026-05-05 13:42 21.83049 -142.22250 40101 ft 412 kts 266°
2026-05-05 13:42 21.82546 -142.28291 40093 ft 411 kts 266°
2026-05-05 13:43 21.82039 -142.34358 40105 ft 410 kts 266°
2026-05-05 13:43 21.81533 -142.40366 40097 ft 411 kts 266°
2026-05-05 13:44 21.81023 -142.46419 40088 ft 411 kts 266°
2026-05-05 13:44 21.80512 -142.52469 40100 ft 411 kts 266°
2026-05-05 13:45 21.79998 -142.58513 40088 ft 410 kts 266°
2026-05-05 13:45 21.79482 -142.64546 40097 ft 410 kts 266°
2026-05-05 13:46 21.78966 -142.70555 40092 ft 410 kts 265°
2026-05-05 13:46 21.78444 -142.76594 40096 ft 410 kts 265°
2026-05-05 13:47 21.77923 -142.82613 40093 ft 410 kts 266°
2026-05-05 13:47 21.77399 -142.88661 40104 ft 410 kts 265°
2026-05-05 13:48 21.76871 -142.94698 40087 ft 411 kts 265°
2026-05-05 13:48 21.76345 -143.00703 40103 ft 410 kts 265°
2026-05-05 13:49 21.75812 -143.06763 40114 ft 410 kts 265°
2026-05-05 13:49 21.75279 -143.12779 40108 ft 411 kts 266°
2026-05-05 13:50 21.74742 -143.18823 40108 ft 411 kts 265°
2026-05-05 13:50 21.74205 -143.24863 40104 ft 411 kts 265°
2026-05-05 13:51 21.73663 -143.30908 40102 ft 410 kts 265°
2026-05-05 13:51 21.73119 -143.36951 40110 ft 411 kts 265°
2026-05-05 13:52 21.72579 -143.42947 40099 ft 410 kts 265°
2026-05-05 13:52 21.72032 -143.48981 40101 ft 410 kts 265°
2026-05-05 13:53 21.71482 -143.55028 40097 ft 410 kts 265°
2026-05-05 13:53 21.70930 -143.61063 40101 ft 410 kts 265°
2026-05-05 13:54 21.70374 -143.67131 40102 ft 410 kts 265°
2026-05-05 13:54 21.69822 -143.73122 40099 ft 410 kts 265°
2026-05-05 13:55 21.69266 -143.79141 40091 ft 410 kts 265°
2026-05-05 13:55 21.68706 -143.85167 40097 ft 409 kts 265°
2026-05-05 13:56 21.68146 -143.91177 40092 ft 411 kts 265°
2026-05-05 13:56 21.67583 -143.97172 40090 ft 410 kts 265°
2026-05-05 13:57 21.67019 -144.03189 40088 ft 409 kts 265°
2026-05-05 13:57 21.66453 -144.09207 40088 ft 410 kts 265°
2026-05-05 13:58 21.65886 -144.15195 40086 ft 410 kts 265°
2026-05-05 13:58 21.65313 -144.21211 40084 ft 409 kts 265°
2026-05-05 13:59 21.64455 -144.30211 40085 ft 410 kts 265°
2026-05-05 14:00 21.63687 -144.38199 40083 ft 409 kts 265°
2026-05-05 14:00 21.63013 -144.45187 40080 ft 410 kts 265°
2026-05-05 14:01 21.62432 -144.51190 40078 ft 410 kts 265°
2026-05-05 14:01 21.61844 -144.57240 40074 ft 410 kts 265°
2026-05-05 14:02 21.61254 -144.63287 40071 ft 411 kts 265°
2026-05-05 14:02 21.60664 -144.69293 40078 ft 410 kts 265°
2026-05-05 14:03 21.60076 -144.75281 40074 ft 410 kts 265°
2026-05-05 14:03 21.59483 -144.81294 40068 ft 411 kts 265°
2026-05-05 14:04 21.58885 -144.87318 40069 ft 410 kts 265°
2026-05-05 14:04 21.58291 -144.93298 40071 ft 411 kts 265°
2026-05-05 14:05 21.57690 -144.99333 40068 ft 410 kts 265°
2026-05-05 14:05 21.57088 -145.05328 40065 ft 410 kts 265°
2026-05-05 14:06 21.56482 -145.11330 40065 ft 410 kts 265°
2026-05-05 14:06 21.55878 -145.17340 40067 ft 410 kts 265°
2026-05-05 14:07 21.55271 -145.23343 40067 ft 409 kts 265°
2026-05-05 14:07 21.54664 -145.29311 40066 ft 409 kts 265°
2026-05-05 14:08 21.54051 -145.35315 40067 ft 409 kts 265°
2026-05-05 14:08 21.53437 -145.41315 40064 ft 408 kts 265°
2026-05-05 14:09 21.52824 -145.47273 40059 ft 408 kts 265°
2026-05-05 14:09 21.52205 -145.53290 40067 ft 410 kts 265°
2026-05-05 14:10 21.51579 -145.59329 40064 ft 412 kts 265°
2026-05-05 14:10 21.50953 -145.65364 40062 ft 412 kts 265°
2026-05-05 14:11 21.50323 -145.71416 40060 ft 412 kts 265°
2026-05-05 14:11 21.49697 -145.77393 40064 ft 411 kts 264°
2026-05-05 14:12 21.49067 -145.83398 40061 ft 411 kts 264°
2026-05-05 14:12 21.48432 -145.89435 40061 ft 411 kts 264°
2026-05-05 14:13 21.47796 -145.95447 40061 ft 411 kts 265°
2026-05-05 14:13 21.47155 -146.01497 40063 ft 411 kts 264°
2026-05-05 14:14 21.46516 -146.07484 40072 ft 411 kts 264°
2026-05-05 14:14 21.45874 -146.13504 40065 ft 411 kts 264°
2026-05-05 14:15 21.45232 -146.19510 40061 ft 411 kts 264°
2026-05-05 14:15 21.44583 -146.25526 40060 ft 410 kts 264°
2026-05-05 14:16 21.43935 -146.31545 40063 ft 410 kts 264°
2026-05-05 14:16 21.43284 -146.37552 40063 ft 410 kts 265°
2026-05-05 14:17 21.42631 -146.43565 40058 ft 410 kts 265°
2026-05-05 14:17 21.41976 -146.49577 40060 ft 409 kts 265°
2026-05-05 14:18 21.41322 -146.55569 40059 ft 410 kts 264°
2026-05-05 14:18 21.40659 -146.61607 40061 ft 409 kts 264°
2026-05-05 14:19 21.39999 -146.67603 40063 ft 410 kts 264°
2026-05-05 14:19 21.39339 -146.73587 40060 ft 410 kts 264°
2026-05-05 14:20 21.38671 -146.79602 40053 ft 409 kts 264°
2026-05-05 14:20 21.38007 -146.85577 40059 ft 409 kts 264°
2026-05-05 14:21 21.37336 -146.91579 40054 ft 410 kts 264°
2026-05-05 14:21 21.36665 -146.97594 40057 ft 409 kts 264°
2026-05-05 14:22 21.35995 -147.03555 40055 ft 408 kts 264°
2026-05-05 14:22 21.35321 -147.09551 40053 ft 407 kts 264°
2026-05-05 14:23 21.34647 -147.15505 40055 ft 408 kts 264°
2026-05-05 14:23 21.33969 -147.21489 40054 ft 408 kts 264°
2026-05-05 14:24 21.33288 -147.27458 40055 ft 408 kts 264°
2026-05-05 14:24 21.32609 -147.33420 40055 ft 408 kts 264°
2026-05-05 14:25 21.31927 -147.39389 40054 ft 408 kts 264°
2026-05-05 14:25 21.31241 -147.45367 40055 ft 408 kts 264°
2026-05-05 14:26 21.30548 -147.51372 40053 ft 408 kts 264°
2026-05-05 14:26 21.29859 -147.57341 40055 ft 407 kts 264°
2026-05-05 14:27 21.29167 -147.63316 40054 ft 407 kts 264°
2026-05-05 14:27 21.28469 -147.69313 40053 ft 407 kts 264°
2026-05-05 14:28 21.27773 -147.75256 40054 ft 408 kts 264°
2026-05-05 14:28 21.27076 -147.81224 40054 ft 408 kts 264°
2026-05-05 14:29 21.26385 -147.87137 40053 ft 408 kts 264°
2026-05-05 14:29 21.25680 -147.93105 40054 ft 407 kts 264°
2026-05-05 14:30 21.24980 -147.99059 40055 ft 408 kts 264°
2026-05-05 14:30 21.24273 -148.05025 40053 ft 407 kts 263°
2026-05-05 14:31 21.23565 -148.10973 40053 ft 407 kts 264°
2026-05-05 14:31 21.22864 -148.16847 40055 ft 407 kts 264°
2026-05-05 14:32 21.22159 -148.22743 40056 ft 407 kts 264°
2026-05-05 14:32 21.21446 -148.28708 40055 ft 407 kts 263°
2026-05-05 14:33 21.20727 -148.34685 40053 ft 407 kts 263°
2026-05-05 14:33 21.20018 -148.40561 40054 ft 407 kts 263°
2026-05-05 14:34 21.19296 -148.46516 40054 ft 406 kts 264°
2026-05-05 14:34 21.18574 -148.52473 40055 ft 407 kts 263°
2026-05-05 14:35 21.17851 -148.58405 40055 ft 407 kts 263°
2026-05-05 14:35 21.17125 -148.64365 40054 ft 406 kts 264°
2026-05-05 14:36 21.16400 -148.70297 40054 ft 407 kts 263°
2026-05-05 14:36 21.15668 -148.76253 40053 ft 405 kts 263°
2026-05-05 14:37 21.14937 -148.82179 40056 ft 405 kts 263°
2026-05-05 14:37 21.14204 -148.88126 40054 ft 406 kts 263°
2026-05-05 14:38 21.13471 -148.94032 40053 ft 406 kts 263°
2026-05-05 14:38 21.12735 -148.99965 40054 ft 406 kts 263°
2026-05-05 14:39 21.11994 -149.05913 40057 ft 406 kts 263°
2026-05-05 14:39 21.11254 -149.11836 40052 ft 406 kts 263°
2026-05-05 14:40 21.10512 -149.17758 40054 ft 405 kts 263°
2026-05-05 14:40 21.09767 -149.23697 40057 ft 405 kts 263°
2026-05-05 14:41 21.09021 -149.29613 40052 ft 406 kts 263°
2026-05-05 14:41 21.08265 -149.35591 40054 ft 405 kts 263°
2026-05-05 14:42 21.07513 -149.41518 40053 ft 406 kts 263°
2026-05-05 14:42 21.06761 -149.47418 40057 ft 406 kts 263°
2026-05-05 14:43 21.06003 -149.53381 40057 ft 406 kts 263°
2026-05-05 14:43 21.05242 -149.59312 40055 ft 406 kts 263°
2026-05-05 14:44 21.04478 -149.65279 40055 ft 407 kts 263°
2026-05-05 14:44 21.03717 -149.71199 40052 ft 407 kts 263°
2026-05-05 14:45 21.02948 -149.77139 40056 ft 407 kts 263°
2026-05-05 14:45 21.02183 -149.83073 40054 ft 407 kts 263°
2026-05-05 14:46 21.01415 -149.88985 40049 ft 408 kts 263°
2026-05-05 14:46 21.00647 -149.94893 40051 ft 409 kts 263°
2026-05-05 14:47 20.99964 -150.00807 40051 ft 409 kts 265°
2026-05-05 14:47 20.99587 -150.06778 40058 ft 409 kts 266°
2026-05-05 14:48 20.99226 -150.12749 40051 ft 404 kts 266°
2026-05-05 14:48 20.98867 -150.18640 40055 ft 401 kts 266°
2026-05-05 14:49 20.98503 -150.24544 40053 ft 401 kts 266°
2026-05-05 14:49 20.98142 -150.30429 40046 ft 400 kts 266°
2026-05-05 14:50 20.97783 -150.36305 40047 ft 400 kts 266°
2026-05-05 14:50 20.97418 -150.42169 40047 ft 400 kts 266°
2026-05-05 14:51 20.97053 -150.48027 40046 ft 399 kts 266°
2026-05-05 14:51 20.96687 -150.53891 40043 ft 400 kts 266°
2026-05-05 14:52 20.96318 -150.59724 40044 ft 400 kts 266°
2026-05-05 14:52 20.95947 -150.65569 40043 ft 400 kts 266°
2026-05-05 14:53 20.95579 -150.71347 40041 ft 400 kts 266°
2026-05-05 14:53 20.95216 -150.77035 40038 ft 400 kts 266°
2026-05-05 14:54 20.94847 -150.82742 40038 ft 401 kts 266°
2026-05-05 14:54 20.94474 -150.88492 40038 ft 401 kts 266°
2026-05-05 14:55 20.94105 -150.94202 40035 ft 401 kts 266°
2026-05-05 14:55 20.93729 -150.99959 40036 ft 401 kts 266°
2026-05-05 14:56 20.93350 -151.05718 40034 ft 401 kts 266°
2026-05-05 14:56 20.92966 -151.11556 40035 ft 402 kts 266°
2026-05-05 14:57 20.92577 -151.17401 40033 ft 402 kts 266°
2026-05-05 14:57 20.92183 -151.23317 40031 ft 401 kts 266°
2026-05-05 14:58 20.91790 -151.29175 40034 ft 401 kts 266°
2026-05-05 14:58 20.91393 -151.35059 40035 ft 402 kts 266°
2026-05-05 14:59 20.90993 -151.40968 40037 ft 402 kts 266°
2026-05-05 14:59 20.90591 -151.46898 40042 ft 402 kts 266°
2026-05-05 15:00 20.90254 -151.51834 40042 ft 402 kts 266°
2026-05-05 15:00 20.89779 -151.58719 40041 ft 402 kts 266°
2026-05-05 15:01 20.89374 -151.64606 40041 ft 404 kts 266°
2026-05-05 15:01 20.88958 -151.70590 40041 ft 408 kts 266°
2026-05-05 15:02 20.88544 -151.76531 40039 ft 409 kts 265°
2026-05-05 15:02 20.88124 -151.82487 40038 ft 409 kts 265°
2026-05-05 15:03 20.87701 -151.88509 40041 ft 408 kts 265°
2026-05-05 15:03 20.87278 -151.94508 40047 ft 409 kts 265°
2026-05-05 15:04 20.86851 -152.00481 40051 ft 408 kts 265°
2026-05-05 15:04 20.86422 -152.06473 40052 ft 408 kts 265°
2026-05-05 15:05 20.85773 -152.15469 40050 ft 408 kts 265°
2026-05-05 15:06 20.85345 -152.21376 40051 ft 409 kts 265°
2026-05-05 15:06 20.84910 -152.27321 40043 ft 410 kts 265°
2026-05-05 15:07 20.84469 -152.33337 40031 ft 410 kts 265°
2026-05-05 15:07 20.84027 -152.39362 40033 ft 410 kts 265°
2026-05-05 15:08 20.83580 -152.45418 40033 ft 410 kts 265°
2026-05-05 15:08 20.83133 -152.51442 40033 ft 411 kts 265°
2026-05-05 15:09 20.82684 -152.57481 40035 ft 410 kts 265°
2026-05-05 15:09 20.82229 -152.63530 40030 ft 411 kts 265°
2026-05-05 15:10 20.81775 -152.69559 40035 ft 411 kts 265°
2026-05-05 15:10 20.81318 -152.75606 40033 ft 411 kts 265°
2026-05-05 15:11 20.80859 -152.81619 40030 ft 411 kts 265°
2026-05-05 15:11 20.80402 -152.87630 40033 ft 411 kts 265°
2026-05-05 15:12 20.79943 -152.93643 40031 ft 411 kts 265°
2026-05-05 15:12 20.79525 -152.99724 40032 ft 412 kts 267°
2026-05-05 15:13 20.79480 -153.05693 40029 ft 413 kts 269°
2026-05-05 15:13 20.79495 -153.11726 40027 ft 413 kts 269°
2026-05-05 15:14 20.79510 -153.17786 40027 ft 413 kts 269°
2026-05-05 15:14 20.79526 -153.23825 40028 ft 413 kts 269°
2026-05-05 15:15 20.79540 -153.29924 40026 ft 413 kts 269°
2026-05-05 15:15 20.79553 -153.36005 40026 ft 413 kts 269°
2026-05-05 15:16 20.79563 -153.42049 40023 ft 413 kts 269°
2026-05-05 15:16 20.79571 -153.48077 40024 ft 414 kts 269°
2026-05-05 15:17 20.79576 -153.54114 40022 ft 414 kts 269°
2026-05-05 15:17 20.79582 -153.60146 40023 ft 414 kts 269°
2026-05-05 15:18 20.79580 -153.66144 40029 ft 414 kts 269°
2026-05-05 15:18 20.79580 -153.72211 40025 ft 414 kts 269°
2026-05-05 15:19 20.79580 -153.78343 40021 ft 414 kts 269°
2026-05-05 15:19 20.79574 -153.84416 40026 ft 414 kts 269°
2026-05-05 15:20 20.79567 -153.90465 40031 ft 414 kts 269°
2026-05-05 15:20 20.79558 -153.96489 40034 ft 415 kts 269°
2026-05-05 15:21 20.79546 -154.02563 40031 ft 415 kts 269°
2026-05-05 15:21 20.79533 -154.08641 40030 ft 416 kts 269°
2026-05-05 15:22 20.79517 -154.14725 40031 ft 416 kts 269°
2026-05-05 15:22 20.79501 -154.20775 40032 ft 416 kts 269°
2026-05-05 15:23 20.79480 -154.27006 40032 ft 416 kts 269°
2026-05-05 15:23 20.79458 -154.33060 40034 ft 416 kts 269°
2026-05-05 15:24 20.79433 -154.39110 40035 ft 416 kts 269°
2026-05-05 15:24 20.79409 -154.45105 40032 ft 416 kts 269°
2026-05-05 15:25 20.79380 -154.51143 40034 ft 416 kts 269°
2026-05-05 15:25 20.79350 -154.57278 40034 ft 417 kts 269°
2026-05-05 15:26 20.79316 -154.63264 40033 ft 417 kts 269°
2026-05-05 15:26 20.79281 -154.69385 40032 ft 416 kts 269°
2026-05-05 15:27 20.79245 -154.75459 40031 ft 416 kts 269°
2026-05-05 15:27 20.79207 -154.81581 40030 ft 407 kts 268°
2026-05-05 15:28 20.79167 -154.87418 40032 ft 402 kts 268°
2026-05-05 15:28 20.79124 -154.93419 40035 ft 402 kts 268°
2026-05-05 15:29 20.79078 -154.99490 40033 ft 402 kts 268°
2026-05-05 15:29 20.79031 -155.05568 40035 ft 401 kts 268°
2026-05-05 15:30 20.78980 -155.11662 40034 ft 401 kts 268°
2026-05-05 15:30 20.78927 -155.17737 40031 ft 401 kts 268°
2026-05-05 15:31 20.78873 -155.23802 40030 ft 402 kts 268°
2026-05-05 15:31 20.78818 -155.29849 40029 ft 403 kts 269°
2026-05-05 15:32 20.78762 -155.35841 40028 ft 403 kts 268°
2026-05-05 15:32 20.78703 -155.41788 39977 ft 403 kts 268°
2026-05-05 15:32 20.78673 -155.44728 39649 ft 403 kts 268°
2026-05-05 15:33 20.78643 -155.47690 39330 ft 400 kts 268°
2026-05-05 15:33 20.78612 -155.50612 39018 ft 396 kts 268°
2026-05-05 15:33 20.78581 -155.53557 38719 ft 394 kts 268°
2026-05-05 15:33 20.78548 -155.56470 38434 ft 394 kts 268°
2026-05-05 15:34 20.78516 -155.59404 38146 ft 396 kts 268°
2026-05-05 15:34 20.78482 -155.62305 37864 ft 396 kts 268°
2026-05-05 15:34 20.78449 -155.65178 37582 ft 398 kts 268°
2026-05-05 15:34 20.78417 -155.67902 37324 ft 399 kts 268°
2026-05-05 15:35 20.78384 -155.70685 37055 ft 399 kts 268°
2026-05-05 15:35 20.78352 -155.73463 36791 ft 401 kts 268°
2026-05-05 15:35 20.78320 -155.76207 36531 ft 402 kts 268°
2026-05-05 15:35 20.78286 -155.79031 36260 ft 404 kts 268°
2026-05-05 15:36 20.78251 -155.81834 35992 ft 405 kts 268°
2026-05-05 15:36 20.78217 -155.84625 35725 ft 405 kts 268°
2026-05-05 15:36 20.78177 -155.87764 35412 ft 407 kts 268°
2026-05-05 15:36 20.78140 -155.90707 35064 ft 409 kts 268°
2026-05-05 15:37 20.78103 -155.93545 34579 ft 411 kts 268°
2026-05-05 15:37 20.78065 -155.96490 33982 ft 411 kts 268°
2026-05-05 15:37 20.78024 -155.99539 33319 ft 412 kts 269°
2026-05-05 15:37 20.77982 -156.02585 32682 ft 414 kts 269°
2026-05-05 15:38 20.77941 -156.05606 31997 ft 417 kts 269°
2026-05-05 15:38 20.77900 -156.08551 31268 ft 421 kts 269°
2026-05-05 15:38 20.77857 -156.11533 30514 ft 426 kts 269°
2026-05-05 15:38 20.77815 -156.14534 29790 ft 430 kts 269°
2026-05-05 15:39 20.77773 -156.17552 29267 ft 429 kts 269°
2026-05-05 15:39 20.77730 -156.20596 28803 ft 426 kts 269°
2026-05-05 15:39 20.77687 -156.23573 28383 ft 423 kts 269°
2026-05-05 15:39 20.77643 -156.26523 27991 ft 419 kts 269°
2026-05-05 15:40 20.77600 -156.29456 27576 ft 416 kts 269°
2026-05-05 15:40 20.77555 -156.32407 27151 ft 413 kts 269°
2026-05-05 15:40 20.77509 -156.35413 26733 ft 410 kts 269°
2026-05-05 15:40 20.77463 -156.38319 26305 ft 407 kts 269°
2026-05-05 15:41 20.77418 -156.41190 25906 ft 404 kts 269°
2026-05-05 15:41 20.77372 -156.44136 25484 ft 402 kts 269°
2026-05-05 15:41 20.77324 -156.47063 25063 ft 399 kts 269°
2026-05-05 15:41 20.77278 -156.49832 24670 ft 397 kts 269°
2026-05-05 15:42 20.77229 -156.52803 24260 ft 394 kts 269°
2026-05-05 15:42 20.77178 -156.55811 23843 ft 391 kts 270°
2026-05-05 15:42 20.77130 -156.58746 23441 ft 388 kts 270°
2026-05-05 15:42 20.77080 -156.61653 23033 ft 386 kts 270°
2026-05-05 15:43 20.77033 -156.64490 22644 ft 383 kts 270°
2026-05-05 15:43 20.76986 -156.67198 22267 ft 382 kts 269°
2026-05-05 15:43 20.76939 -156.69939 21888 ft 380 kts 269°
2026-05-05 15:43 20.76893 -156.72639 21497 ft 379 kts 269°
2026-05-05 15:44 20.76845 -156.75346 21097 ft 378 kts 269°
2026-05-05 15:44 20.76797 -156.78049 20701 ft 377 kts 269°
2026-05-05 15:44 20.76749 -156.80713 20316 ft 376 kts 269°
2026-05-05 15:44 20.76698 -156.83493 19919 ft 375 kts 269°
2026-05-05 15:45 20.76646 -156.86310 19478 ft 375 kts 269°
2026-05-05 15:45 20.76591 -156.89241 19030 ft 374 kts 269°
2026-05-05 15:45 20.76536 -156.92158 18592 ft 374 kts 269°
2026-05-05 15:45 20.76565 -156.94946 18182 ft 372 kts 274°
2026-05-05 15:46 20.76906 -156.97672 17770 ft 371 kts 281°
2026-05-05 15:46 20.77563 -157.00340 17370 ft 370 kts 287°
2026-05-05 15:46 20.78387 -157.02946 16968 ft 369 kts 289°
2026-05-05 15:46 20.79235 -157.05530 16558 ft 368 kts 289°
2026-05-05 15:47 20.80082 -157.08115 16166 ft 367 kts 289°
2026-05-05 15:47 20.80643 -157.09834 15903 ft 366 kts 289°
2026-05-05 15:47 20.81750 -157.13252 15378 ft 364 kts 289°
2026-05-05 15:47 20.82575 -157.15805 14974 ft 363 kts 289°
2026-05-05 15:48 20.83392 -157.18338 14584 ft 362 kts 289°
2026-05-05 15:48 20.84212 -157.20883 14184 ft 361 kts 289°
2026-05-05 15:48 20.85020 -157.23390 13796 ft 359 kts 288°
2026-05-05 15:48 20.85841 -157.25941 13405 ft 358 kts 288°
2026-05-05 15:49 20.86643 -157.28432 13021 ft 356 kts 288°
2026-05-05 15:49 20.87447 -157.30928 12633 ft 355 kts 288°
2026-05-05 15:49 20.88250 -157.33427 12246 ft 354 kts 289°
2026-05-05 15:49 20.89044 -157.35906 11858 ft 352 kts 289°
2026-05-05 15:50 20.89834 -157.38368 11471 ft 351 kts 289°
2026-05-05 15:50 20.90645 -157.40900 11074 ft 350 kts 289°
2026-05-05 15:50 20.91434 -157.43361 10692 ft 348 kts 289°
2026-05-05 15:50 20.92216 -157.45802 10309 ft 347 kts 289°
2026-05-05 15:51 20.92987 -157.48209 10177 ft 336 kts 289°
2026-05-05 15:51 20.93734 -157.50545 10109 ft 325 kts 289°
2026-05-05 15:51 20.94450 -157.52782 10040 ft 314 kts 289°
2026-05-05 15:51 20.95144 -157.54956 9990 ft 303 kts 289°
2026-05-05 15:52 20.95807 -157.57033 9959 ft 292 kts 289°
2026-05-05 15:52 20.96465 -157.59091 9793 ft 287 kts 289°
2026-05-05 15:52 20.97113 -157.61118 9495 ft 287 kts 289°
2026-05-05 15:52 20.97773 -157.63184 9206 ft 286 kts 289°
2026-05-05 15:53 20.98425 -157.65225 8921 ft 285 kts 288°
2026-05-05 15:53 20.99057 -157.67206 8642 ft 285 kts 288°
2026-05-05 15:53 20.99696 -157.69214 8359 ft 285 kts 288°
2026-05-05 15:53 21.00339 -157.71233 8082 ft 284 kts 288°
2026-05-05 15:54 21.00975 -157.73233 7809 ft 283 kts 288°
2026-05-05 15:54 21.01620 -157.75259 7531 ft 283 kts 288°
2026-05-05 15:54 21.02277 -157.77325 7250 ft 282 kts 288°
2026-05-05 15:54 21.02930 -157.79375 6969 ft 281 kts 288°
2026-05-05 15:55 21.03572 -157.81396 6690 ft 281 kts 288°
2026-05-05 15:55 21.04211 -157.83409 6413 ft 281 kts 288°
2026-05-05 15:55 21.04841 -157.85396 6143 ft 280 kts 288°
2026-05-05 15:55 21.05467 -157.87369 5876 ft 280 kts 288°
2026-05-05 15:56 21.06097 -157.89355 5612 ft 279 kts 288°
2026-05-05 15:56 21.06712 -157.91293 5352 ft 279 kts 288°
2026-05-05 15:56 21.07328 -157.93242 5092 ft 278 kts 287°
2026-05-05 15:56 21.07771 -157.95261 4825 ft 277 kts 278°
2026-05-05 15:57 21.08079 -157.97322 4558 ft 277 kts 279°
2026-05-05 15:57 21.08475 -157.99345 4297 ft 277 kts 283°
2026-05-05 15:57 21.09021 -158.01325 4039 ft 277 kts 288°
2026-05-05 15:57 21.09726 -158.03250 3784 ft 277 kts 293°
2026-05-05 15:58 21.10584 -158.05107 3528 ft 277 kts 298°
2026-05-05 15:58 21.11593 -158.06886 3275 ft 277 kts 303°
2026-05-05 15:58 21.12740 -158.08568 3039 ft 276 kts 308°
2026-05-05 15:58 21.13976 -158.10094 2983 ft 267 kts 313°
2026-05-05 15:59 21.15286 -158.11453 2978 ft 256 kts 322°
2026-05-05 15:59 21.16915 -158.12149 2946 ft 242 kts
2026-05-05 15:59 21.18457 -158.11642 2884 ft 227 kts 42°
2026-05-05 15:59 21.19414 -158.10390 2821 ft 215 kts 60°
2026-05-05 16:00 21.20154 -158.09065 2733 ft 201 kts 62°
2026-05-05 16:00 21.20823 -158.07880 2658 ft 185 kts 60°
2026-05-05 16:00 21.21468 -158.06850 2606 ft 171 kts 57°
2026-05-05 16:00 21.22085 -158.05937 2572 ft 158 kts 56°
2026-05-05 16:01 21.22714 -158.05032 2415 ft 149 kts 56°
2026-05-05 16:01 21.23328 -158.04158 2269 ft 145 kts 56°
2026-05-05 16:01 21.23943 -158.03282 2175 ft 145 kts 55°
2026-05-05 16:01 21.24555 -158.02411 2159 ft 146 kts 56°
2026-05-05 16:02 21.25175 -158.01532 1981 ft 144 kts 56°
2026-05-05 16:02 21.25790 -158.00659 1789 ft 143 kts 56°
2026-05-05 16:02 21.26395 -157.99800 1604 ft 142 kts 56°
2026-05-05 16:02 21.27006 -157.98933 1418 ft 142 kts 55°
2026-05-05 16:03 21.27597 -157.98094 1238 ft 142 kts 54°
2026-05-05 16:03 21.28186 -157.97258 1058 ft 142 kts 54°
2026-05-05 16:03 21.28770 -157.96431 878 ft 142 kts 53°
2026-05-05 16:03 21.29356 -157.95599 697 ft 142 kts 53°
2026-05-05 16:04 21.29949 -157.94759 513 ft 142 kts 53°
2026-05-05 16:04 21.30500 -157.93977 343 ft 142 kts 52°
2026-05-05 16:04 21.31070 -157.93170 167 ft 142 kts 52°
2026-05-05 16:04 21.31617 -157.92394 32 ft 137 kts 52°
2026-05-05 16:05 21.32027 -157.91814 27 ft 69 kts 53°
2026-05-05 16:05 21.32187 -157.91586 25 ft 25 kts 53°
2026-05-05 16:05 21.32300 -157.91464 28 ft 22 kts 41°
2026-05-05 16:05 21.32375 -157.91400 30 ft 7 kts 36°
2026-05-05 16:06 21.32424 -157.91365 30 ft 9 kts 26°
2026-05-05 16:06 21.32492 -157.91342 30 ft 11 kts 12°
2026-05-05 16:06 21.32574 -157.91327 33 ft 11 kts
2026-05-05 16:06 21.32642 -157.91324 36 ft 8 kts 349°
2026-05-05 16:07 21.32678 -157.91357 37 ft 6 kts 290°
2026-05-05 16:07 21.32689 -157.91411 37 ft 8 kts 274°
2026-05-05 16:07 21.32690 -157.91476 37 ft 9 kts 270°
2026-05-05 16:07 21.32689 -157.91556 37 ft 11 kts 269°
2026-05-05 16:08 21.32689 -157.91656 35 ft 14 kts 270°
2026-05-05 16:08 21.32690 -157.91751 35 ft 10 kts 270°
2026-05-05 16:08 21.32694 -157.91818 35 ft 8 kts 288°
2026-05-05 16:08 21.32729 -157.91852 37 ft 6 kts 342°
2026-05-05 16:09 21.32765 -157.91856 38 ft 4 kts
2026-05-05 16:09 21.32795 -157.91849 39 ft 4 kts 20°
2026-05-05 16:09 21.32825 -157.91838 40 ft 4 kts
2026-05-05 16:09 21.32853 -157.91838 41 ft 4 kts 358°
2026-05-05 16:10 21.32877 -157.91838 42 ft 3 kts
2026-05-05 16:10 21.32895 -157.91834 43 ft 3 kts 22°
2026-05-05 16:10 21.32913 -157.91817 43 ft 4 kts 52°
2026-05-05 16:10 21.32925 -157.91788 44 ft 5 kts 74°
2026-05-05 16:11 21.32931 -157.91760 44 ft 3 kts 76°
2026-05-05 16:11 21.32935 -157.91744 44 ft 0 kts 73°